Weather History for Gustavus, AK

Change the Weather History Date:

Friday, March 1, 2013

  Actual Average Record
Temperature  
Mean Temperature 40 °F -  
Max Temperature 42 °F 37 °F 46 °F (1963)
Min Temperature 35 °F 24 °F 0 °F (2007)
Degree Days  
Heating Degree Days 26    
Moisture  
Dew Point 32 °F    
Average Humidity 76    
Maximum Humidity 81    
Minimum Humidity 70    
Precipitation  
Precipitation 0.00 in - - ()
Sea Level Pressure  
Sea Level Pressure 29.89 in    
Wind  
Wind Speed 10 mph (SE)    
Max Wind Speed 18 mph    
Max Gust Speed 24 mph    
Visibility 10 miles    
Events      
Averages and records for this station are not official NWS values.
T = Trace of Precipitation, MM = Missing Value Source: NWS Daily Summary

Daily Weather History Graph

Daily Weather History Graph

Search for Another Location

Airport:

Trip Planner

Search our weather history database for the weather conditions in past years. The results will help you decide how hot, cold, wet, or windy it might be!

Date:

Astronomy

Mar. 01, 2013 Rise Set
Actual Time 6:57 AM AKST 5:34 PM AKST
Civil Twilight 6:17 AM AKST 6:14 PM AKST
Nautical Twilight 5:31 AM AKST 7:00 PM AKST
Astronomical Twilight 4:44 AM AKST 7:46 PM AKST
Moon 11:32 PM AKST (3/1) 7:42 AM AKST (3/1)
Length of Visible Light 11h 57m
Length of Day
10h 37m
Waning Gibbous, 82% of the Moon is Illuminated
Mar 1
Waning Gibbous
Mar 4
Last Quarter
Mar 11
New
Mar 19
First Quarter
Mar 27
Full

Hourly Weather History & Observations

Time (AKST) Temp. Windchill Dew Point Humidity Pressure Visibility Wind Dir Wind Speed Gust Speed Precip Events Conditions
12:16 AM - - - N/A% 29.79 in 10.0 mi ESE 8.1 mph - N/A   Mostly Cloudy
12:56 AM - - - N/A% 29.79 in 10.0 mi ESE 9.2 mph - N/A   Mostly Cloudy
1:16 AM - - - N/A% 29.80 in 10.0 mi SE 11.5 mph - N/A   Overcast
1:36 AM - - - N/A% 29.81 in 10.0 mi SSE 10.4 mph - N/A   Overcast
1:56 AM 37.4 °F 28.9 °F 30.2 °F 75% 29.81 in 10.0 mi SE 13.8 mph - N/A   Overcast
2:16 AM 37.4 °F 29.3 °F 30.2 °F 75% 29.82 in 9.0 mi SE 12.7 mph - N/A   Overcast
2:36 AM 37.4 °F 29.8 °F 32.0 °F 81% 29.81 in 10.0 mi SE 11.5 mph - N/A   Mostly Cloudy
2:56 AM 37.4 °F 29.8 °F 32.0 °F 81% 29.82 in 10.0 mi SE 11.5 mph - N/A   Overcast
3:16 AM 39.2 °F 32.0 °F 32.0 °F 75% 29.81 in 10.0 mi SE 11.5 mph - N/A   Mostly Cloudy
3:36 AM 39.2 °F 31.2 °F 32.0 °F 75% 29.82 in 10.0 mi SE 13.8 mph - N/A   Overcast
3:56 AM 39.2 °F 31.2 °F 32.0 °F 75% 29.82 in 10.0 mi SE 13.8 mph - N/A   Overcast
4:16 AM 39.2 °F 32.0 °F 32.0 °F 75% 29.82 in 10.0 mi SSE 11.5 mph - N/A   Overcast
4:36 AM 39.2 °F 31.6 °F 30.2 °F 70% 29.82 in 10.0 mi SSE 12.7 mph 17.3 mph N/A   Overcast
4:56 AM 39.2 °F 31.2 °F 30.2 °F 70% 29.82 in 10.0 mi SSE 13.8 mph - N/A   Overcast
5:16 AM 39.2 °F 30.8 °F 30.2 °F 70% 29.82 in 10.0 mi SE 15.0 mph - N/A   Overcast
5:36 AM 39.2 °F 30.8 °F 32.0 °F 75% 29.82 in 10.0 mi SE 15.0 mph 21.9 mph N/A   Mostly Cloudy
5:56 AM 39.2 °F 31.6 °F 32.0 °F 75% 29.82 in 10.0 mi SE 12.7 mph - N/A   Overcast
6:16 AM 39.2 °F 31.2 °F 32.0 °F 75% 29.82 in 10.0 mi SSE 13.8 mph 21.9 mph N/A   Overcast
6:36 AM 37.4 °F 27.8 °F 30.2 °F 75% 29.82 in 10.0 mi SE 17.3 mph - N/A   Overcast
6:56 AM 37.4 °F 30.8 °F 32.0 °F 81% 29.81 in 10.0 mi SE 9.2 mph - N/A   Overcast
7:16 AM 37.4 °F 30.3 °F 32.0 °F 81% 29.82 in 10.0 mi SE 10.4 mph - N/A   Overcast
7:36 AM 39.2 °F 33.0 °F 32.0 °F 75% 29.82 in 10.0 mi SE 9.2 mph 16.1 mph N/A   Overcast
7:56 AM 39.2 °F 32.0 °F 32.0 °F 75% 29.82 in 10.0 mi SE 11.5 mph - N/A   Overcast
8:16 AM 39.2 °F 31.6 °F 32.0 °F 75% 29.83 in 10.0 mi SE 12.7 mph 18.4 mph N/A   Overcast
8:36 AM 39.2 °F 30.8 °F 32.0 °F 75% 29.83 in 10.0 mi SE 15.0 mph 18.4 mph N/A   Overcast
8:56 AM 37.4 °F 28.2 °F 32.0 °F 81% 29.84 in 10.0 mi SE 16.1 mph 24.2 mph N/A   Mostly Cloudy
9:16 AM 37.4 °F 29.3 °F 32.0 °F 81% 29.84 in 10.0 mi SE 12.7 mph - N/A   Overcast
9:36 AM 39.2 °F 31.2 °F 33.8 °F 81% 29.86 in 10.0 mi SSE 13.8 mph 20.7 mph N/A   Overcast
9:56 AM 39.2 °F 30.5 °F 33.8 °F 81% 29.86 in 10.0 mi SSE 16.1 mph - N/A   Overcast
10:16 AM 39.2 °F 31.6 °F 33.8 °F 81% 29.88 in 10.0 mi SSE 12.7 mph 20.7 mph N/A   Overcast
10:36 AM 42.8 °F 36.2 °F 33.8 °F 70% 29.88 in 10.0 mi SE 12.7 mph - N/A   Overcast
10:56 AM - - - N/A% 29.88 in 10.0 mi SE 18.4 mph - N/A   Overcast
11:16 AM - - - N/A% 29.89 in 10.0 mi SE 12.7 mph 19.6 mph N/A   Overcast
11:36 AM - - - N/A% 29.90 in 10.0 mi SE 13.8 mph 19.6 mph N/A   Overcast
11:56 AM - - - N/A% 29.91 in 10.0 mi SE 12.7 mph - N/A   Overcast
12:16 PM - - - N/A% 29.92 in 10.0 mi SE 13.8 mph - N/A   Overcast
12:36 PM - - - N/A% 29.92 in 10.0 mi SE 12.7 mph 17.3 mph N/A   Overcast
12:56 PM - - - N/A% 29.92 in 10.0 mi SE 11.5 mph - N/A   Overcast
1:16 PM - - - N/A% 29.92 in 10.0 mi SE 12.7 mph - N/A   Overcast
1:36 PM - - - N/A% 29.93 in 10.0 mi ESE 11.5 mph - N/A   Overcast
1:56 PM - - - N/A% 29.92 in 10.0 mi SSE 8.1 mph - N/A   Overcast
2:16 PM - - - N/A% 29.92 in 10.0 mi SE 10.4 mph - N/A   Overcast
2:36 PM 42.8 °F 37.5 °F 33.8 °F 70% 29.93 in 10.0 mi SE 9.2 mph - N/A   Overcast
2:56 PM 42.8 °F 36.6 °F 33.8 °F 70% 29.93 in 10.0 mi SE 11.5 mph - N/A   Overcast
3:16 PM 41.0 °F 34.7 °F 33.8 °F 76% 29.94 in 10.0 mi ESE 10.4 mph - N/A   Overcast
3:36 PM 41.0 °F 37.1 °F 33.8 °F 76% 29.94 in 10.0 mi ESE 5.8 mph - N/A   Overcast
3:56 PM 39.2 °F 35.0 °F 33.8 °F 81% 29.94 in 10.0 mi ESE 5.8 mph - N/A   Overcast
4:16 PM 41.0 °F 36.4 °F 33.8 °F 76% 29.94 in 10.0 mi ESE 6.9 mph - N/A   Overcast
4:36 PM 41.0 °F 37.1 °F 33.8 °F 76% 29.94 in 10.0 mi SE 5.8 mph - N/A   Overcast
4:56 PM 41.0 °F 36.4 °F 33.8 °F 76% 29.94 in 10.0 mi SE 6.9 mph - N/A   Overcast
5:16 PM 41.0 °F 38.0 °F 33.8 °F 76% 29.94 in 10.0 mi SE 4.6 mph - N/A   Overcast
5:36 PM 41.0 °F 38.0 °F 33.8 °F 76% 29.94 in 10.0 mi SSE 4.6 mph - N/A   Mostly Cloudy
5:56 PM 39.2 °F - 33.8 °F 81% 29.94 in 10.0 mi Calm Calm - N/A   Partly Cloudy
6:16 PM 37.4 °F 32.8 °F 32.0 °F 81% 29.94 in 10.0 mi SE 5.8 mph - N/A   Partly Cloudy
6:36 PM 37.4 °F 34.9 °F 30.2 °F 75% 29.95 in 10.0 mi North 3.5 mph - N/A   Clear
6:56 PM 35.6 °F - 30.2 °F 81% 29.95 in 10.0 mi Calm Calm - N/A   Mostly Cloudy
7:16 PM - - - N/A% 29.95 in 10.0 mi North 3.5 mph - N/A   Overcast
7:36 PM - - - N/A% 29.95 in 10.0 mi Calm Calm - N/A   Overcast
7:56 PM - - - N/A% 29.95 in 10.0 mi NNW 4.6 mph - N/A   Overcast
8:16 PM - - - N/A% 29.95 in 10.0 mi NNW 4.6 mph - N/A   Overcast
8:36 PM - - - N/A% 29.95 in 10.0 mi Calm Calm - N/A   Overcast
8:56 PM - - - N/A% 29.95 in 10.0 mi Calm Calm - N/A   Overcast
9:16 PM - - - N/A% 29.95 in 10.0 mi North 3.5 mph - N/A   Overcast
9:36 PM - - - N/A% 29.95 in 10.0 mi Calm Calm - N/A   Scattered Clouds
9:56 PM - - - N/A% 29.95 in 10.0 mi NW 5.8 mph - N/A   Scattered Clouds
10:16 PM - - - N/A% 29.95 in 10.0 mi NNW 5.8 mph - N/A   Scattered Clouds
10:36 PM - - - N/A% 29.96 in 10.0 mi NNW 5.8 mph - N/A   Mostly Cloudy
10:56 PM - - - N/A% 29.96 in 10.0 mi NNW 5.8 mph - N/A   Mostly Cloudy
11:16 PM - - - N/A% 29.95 in 10.0 mi NNW 8.1 mph - N/A   Overcast
11:36 PM - - - N/A% 29.95 in 10.0 mi NNW 8.1 mph - N/A   Overcast
11:56 PM - - - N/A% 29.95 in 10.0 mi NW 8.1 mph - N/A   Overcast